Home > Weather > Munich > Past weeks

Flag for Germany Past Weather in Munich, Bavaria, Germany — Yesterday and Last 2 Weeks

Now
63 °F

Clear.


Feels Like: 63 °F
Forecast: 59 / 75 °F
Wind: 6 mph from Southwest

Location: Munich / Franz Josef Strauss Airport

Current Time: Jul 28, 2016 at 1:08:31 AM

Latest Report: Jul 28, 2016 at 12:20 AM


Visibility: 10 mi

Pressure: 30.09 "Hg (28.28 "Hg at 526m altitude)

Humidity: 100%

Dew Point: 63 °F

Location of MunichLocation

Past Weather in Munich — Graph

°F

Munich Temperature Yesterday

Maximum temperature yesterday: 79 °F (at 2:50 PM)
Minimum temperature yesterday: 57 °F (at 1:50 AM)
Average temperature yesterday: 66 °F

High & Low Weather Summary for the Past Weeks

 TemperatureHumidityPressure
High84 °F (Jul 20, 2:50 PM)100% (Jul 12, 11:20 PM)30.33 "Hg (Jul 12, 11:20 PM)
Low48 °F (Jul 15, 2:50 AM)32% (Jul 19, 5:50 PM)29.92 "Hg (Jul 13, 2:20 PM)
Average66 °F79%30.12 "Hg
* Reported Jul 12 11:20 PM — Jul 27 11:50 PM, Munich, Weather by CustomWeather, © 2016

Note: Actual official high and low records may vary slightly from our data, if they occured in-between our weather recording intervals... More about our weather records

Advertising

Munich Weather History for the Previous 24 Hours

Scroll right to see more
 ConditionsComfort  
Time TempWeatherWind HumidityBarometerVisibility
11:50 PM
Wed, Jul 27
63 °FPassing clouds.5 mph94%30.09 "HgN/A
11:20 PM63 °FScattered showers. Passing clouds.5 mph94%30.09 "HgN/A
10:50 PM64 °FScattered showers. Passing clouds.6 mph100%30.09 "HgN/A
10:20 PM64 °FScattered showers. Passing clouds.5 mph100%30.09 "HgN/A
9:50 PM66 °FThunderstorms. Broken clouds.3 mph94%30.07 "HgN/A
9:20 PM64 °FThunderstorms. Partly sunny.5 mph100%30.07 "HgN/A
8:50 PM66 °FSprinkles. Broken clouds.5 mph94%30.07 "HgN/A
8:20 PM66 °FScattered showers. Partly sunny.5 mph100%30.04 "HgN/A
7:50 PM66 °FScattered showers. Partly sunny.5 mph94%30.04 "HgN/A
7:20 PM66 °FThundershowers. Partly sunny.2 mph94%30.04 "HgN/A
6:50 PM66 °FThunderstorms. Broken clouds.2 mph94%30.01 "HgN/A
6:20 PM66 °FThunderstorms. Broken clouds.1 mph88%30.01 "HgN/A
5:50 PM68 °FThunderstorms. Broken clouds.7 mph83%30.01 "Hg6 mi
5:20 PM75 °FScattered showers. Broken clouds.12 mph65%30.01 "HgN/A
4:50 PM79 °FScattered showers. Scattered clouds.6 mph61%30.01 "HgN/A
4:20 PM79 °FScattered showers. Scattered clouds.8 mph54%30.01 "HgN/A
3:50 PM79 °FScattered showers. Scattered clouds.8 mph54%30.01 "HgN/A
3:20 PM79 °FSprinkles. Scattered clouds.6 mph58%30.01 "HgN/A
2:50 PM79 °FScattered clouds.6 mph54%30.04 "HgN/A
2:20 PM77 °FScattered clouds.5 mph61%30.04 "HgN/A
1:50 PM77 °FScattered clouds.3 mph61%30.04 "HgN/A
1:20 PM75 °FScattered clouds.7 mph65%30.04 "HgN/A
12:50 PM73 °FScattered clouds.6 mph69%30.07 "HgN/A
12:20 PM73 °FPartly sunny.7 mph69%30.09 "HgN/A
11:50 AM72 °FPartly sunny.6 mph73%30.09 "HgN/A
11:20 AM72 °FPartly sunny.7 mph69%30.09 "HgN/A
10:50 AM70 °FPartly sunny.5 mph73%30.09 "HgN/A
10:20 AM70 °FPartly sunny.5 mph78%30.09 "HgN/A
9:50 AM70 °FPassing clouds.6 mph73%30.09 "HgN/A
9:20 AM70 °FPassing clouds.5 mph78%30.09 "HgN/A
8:50 AM68 °FPassing clouds.7 mph83%30.09 "HgN/A
8:20 AM64 °FPassing clouds.5 mph94%30.09 "HgN/A
7:50 AM61 °FPassing clouds.5 mph100%30.09 "HgN/A
7:20 AM61 °FFog.3 mph100%30.09 "Hg5 mi
6:50 AM59 °FFog.6 mph100%30.09 "Hg3 mi
6:20 AM57 °FRain. Overcast.2 mph100%30.09 "Hg3 mi
5:50 AM57 °FFog.3 mph100%30.09 "Hg3 mi
5:20 AM57 °FFog.2 mph100%30.09 "Hg3 mi
4:50 AM57 °FFog.3 mph100%30.09 "Hg3 mi
4:20 AM57 °FFog.3 mph100%30.09 "Hg2 mi
3:50 AM57 °FFog.3 mph100%30.09 "Hg2 mi
3:20 AM57 °FFog.2 mph100%30.09 "Hg2 mi
2:50 AM59 °FFog.2 mph100%30.09 "Hg2 mi
2:20 AM57 °FFog.5 mph100%30.09 "Hg2 mi
1:50 AM57 °FLight fog.2 mph100%30.12 "Hg3 mi
1:20 AM59 °FCool.2 mph100%30.12 "Hg4 mi
Weather by CustomWeather, © 2016

See weather overviewHow to use our weather pages